Location: Huntsville
(41.2590°N, 111.7678°W)
Time: 20:52:42
(UTC+00:00)

Explorer 7 - Pass Details

Date: 14 June 2021
Orbit: 484 x 676 km, 50.3° (Epoch: 30 July)

Event Time Altitude Azimuth Distance (km) Brightness Sun altitude
Exits shadow 07:33:03 20° 272° (W) 1,494 9.0 -25.4°
Maximum altitude 07:35:59 45° 336° (NNW) 879 8.1 -25.4°
Drops below altitude 10° 07:40:26 10° 50° (NE) 1,994 10.2 -25.4°
Sets 07:42:46 0° 57° (ENE) 2,870 11.0 -25.4°
